Probability
0 0 0 0 0 0 0 0 0 0 0 0 0 0 0 0 0 0 0 0 0 0 0 0 0 0 0 0 0 0 0 0 0 0 0 0 0 0 0 0 0 0 0 0
0 0 0 0 0 0 0 0 0 0 0 0 0 0 0 0 0 0 0 0 0 0 0 0 0 0 0 0 0 0 0 0 0 0 0 0 0 0 0 0 0 0 0 0
0 0 0 0 0 0 0 0 0 0 0 0 0 0 0 0 0 0 0 0 0 0 0 0 0 0 0 0 0 0 0 0 0 0 0 0 0 0 0 0 0 0 0 0
0 0 0 0 0 0 0 0 0 0 0 0 0 0 0 0 0 0 0 0 0 0 0 0 0 0 0 0 0 0 0 0 0 0 0 0 0 0 0 0 0 0 0 0
0 0 0 0 0 0 0 0 0 0 0 0 0 0 0 0 0 0 0 0 0 0 0 0 0 0 0 0 0 0 0 0 0 0 0 0 0 0 0 0 0 0 0 0
0 0 0 0 0 0 0 0 0 0 0 0 0 0 0 0 0 0 0 0 0 0 0 0 0 0 0 0 0 0 0 0 0 0 0 0 0 0 0 0 0 0 0 0
0 0 0 0 0 0 0 0 0 0 0 0 0 0 0 0 0 0 0 0 0 0 0 0 0 0 0 0 0 0 0 0 0 0 0 0 0 0 0 0 0 0 0 0
0 0 0 0 0 0 0 0 0 0 0 0 0 0 0 0 0 0 0 0 0 0 0 0 0 0 0 0 0 0 0 0 0 0 0 0 0 0 0 0 0 0 0 0
0 0 0 0 0 0 0 0 0 0 0 0 0 0 0 0 0 0 0 0 0 0 0 0 0 0 0 0 0 0 0 0 0 0 0 0 0 0 0 0 0 0 0 0
0 0 0 0 0 0 0 0 0 0 0 0 0 0 0 0 0 0 0 0 0 0 0 0 0 0 0 0 0 0 0 0 0 0 0 0 0 0 0 0 0 0 0 0
0 0 0 0 0 0 0 0 0 0 0 0 0 0 0 0 0 0 0 0 0 0 0 0 0 0 0 0 0 0 0 0 0 0 0 0 0 0 0 0 0 0 0 0
0 0 0 0 0 0 0 0 0 0 0 0 0 0 0 0 0 0 0 0 0 0 0 0 0 0 0 0 0 0 0 0 0 0 0 0 0 0 0 0 0 0 0 0
0 0 0 0 0 0 0 0 0 0 0 0 0 0 0 0 0 0 0 0 0 0 0 0 0 0 0 0 0 0 0 0 0 0 0 0 0 0 0 0 0 0 0 0
0 0 0 0 0 0 0 0 0 0 0 0 0 0 0 0 0 0 0 0 0 0 0 0 0 0 0 0 0 0 0 0 0 0 0 0 0 0 0 0 0 0 0 0
0 0 0 0 0 0 0 0 0 0 0 0 0 0 0 0 0 0 0 0 0 0 0 0 0 0 0 0 0 0 0 0 0 0 0 0 0 0 0 0 0 0 0 0
0 0 0 0 0 0 0 0 0 0 0 0 0 0 0 0 0 0 0 0 0 0 0 0 0 0 0 0 0 0 0 0 0 0 0 0 0 0 0 0 0 0 0 0
0 0 0 0 0 0 0 0 0 0 0 0 0 0 0 0 0 0 0 0 0 0 0 0 0 0 0 0 0 0 0 0 0 0 0 0 0 0 0 0 0 0 0 0
0 0 0 0 0 0 0 0 0 0 0 0 0 0 0 0 0 0 0 0 0 0 0 0 0 0 0 0 0 0 0 0 0 0 0 0 0 0 0 0 0 0 0 0
0 0 0 0 0 0 0 0 0 0 0 0 0 0 0 0 0 0 0 0 0 0 0 0 0 0 0 0 0 0 0 0 0 0 0 0 0 0 0 0 0 0 0 0
0 0 0 0 0 0 0 0 0 0 0 0 0 0 0 0 0 0 0 0 0 0 0 0 0 0 0 0 0 0 0 0 0 0 0 0 0 0 0 0 0 0 0 0
0 0 0 0 0 0 0 0 0 0 0 0 0 0 0 0 0 0 0 0 0 0 0 0 0 0 0 0 0 0 0 0 0 0 0 0 0 0 0 0 0 0 0 0
0 0 0 0 0 0 0 0 0 0 0 0 0 0 0 0 0 0 0 0 0 0 0 0 0 0 0 0 0 0 0 0 0 0 0 0 0 0 0 0 0 0 0 0
0 0 0 0 0 0 0 0 0 0 0 0 0 0 0 0 0 0 0 0 0 0 0 0 0 0 0 0 0 0 0 0 0 0 0 0 0 0 0 0 0 0 0 0
0 0 0 0 0 0 0 0 0 0 0 0 0 0 0 0 0 0 0 0 0 0 0 0 0 0 0 0 0 0 0 0 0 0 0 0 0 0 0 0 0 0 0 0
0 0 0 0 0 0 0 0 0 0 0 0 0 0 0 0 0 0 0 0 0 0 0 0 0 0 0 0 0 0 0 0 0 0 0 0 0 0 0 0 0 0 0 0
0 0 0 0 0 0 0 0 0 0 0 0 0 0 0 0 0 0 0 0 0 0 0 0 0 0 0 0 0 0 0 0 0 0 0 0 0 0 0 0 0 0 0 0
0 0 0 0 0 0 0 0 0 0 0 0 0 0 0 0 0 0 0 0 0 0 0 0 0 0 0 0 0 0 0 0 0 0 0 0 0 0 0 0 0 0 0 0
Height
5628 5629 5629 5630 5631 5630 5629 5628 5627 5627 5625 5624 5621 5617 5615 5613 5610 5608 5605 5602 5599 5595 5591 5588 5584 5581 5577 5573 5569 5565 5560 5555 5551 5547 5543 5540 5538 5536 5536 5536 5537 5538 5539 5540
5620 5620 5620 5621 5623 5623 5622 5621 5620 5619 5619 5618 5614 5612 5610 5608 5605 5603 5600 5597 5593 5590 5586 5583 5580 5576 5573 5569 5565 5560 5555 5551 5546 5542 5539 5536 5533 5532 5531 5530 5531 5531 5531 5532
5610 5611 5610 5613 5617 5616 5615 5614 5613 5612 5613 5611 5608 5606 5603 5602 5600 5597 5594 5591 5588 5584 5581 5578 5575 5571 5568 5564 5560 5555 5550 5546 5542 5538 5534 5531 5529 5527 5525 5525 5524 5524 5524 5524
5600 5602 5601 5609 5608 5608 5607 5607 5606 5605 5605 5603 5601 5598 5597 5595 5593 5591 5588 5585 5582 5579 5576 5573 5569 5566 5563 5559 5555 5551 5546 5542 5537 5533 5530 5526 5524 5522 5521 5520 5519 5518 5517 5517
5590 5590 5592 5599 5600 5599 5598 5599 5599 5597 5597 5595 5593 5591 5591 5589 5586 5584 5581 5578 5576 5573 5570 5567 5564 5561 5557 5554 5550 5546 5541 5537 5532 5528 5525 5521 5519 5517 5515 5514 5512 5511 5511 5511
5580 5581 5583 5591 5591 5590 5590 5590 5591 5589 5588 5587 5585 5584 5585 5582 5580 5577 5575 5572 5569 5567 5564 5561 5558 5555 5551 5548 5545 5540 5536 5532 5527 5523 5520 5517 5514 5512 5510 5508 5507 5506 5505 5504
5570 5571 5574 5581 5581 5581 5582 5583 5581 5580 5579 5579 5577 5576 5575 5573 5572 5569 5567 5565 5563 5560 5557 5554 5551 5549 5545 5542 5538 5534 5530 5526 5522 5518 5514 5512 5509 5507 5505 5503 5501 5500 5499 5498
5561 5562 5569 5572 5571 5572 5572 5572 5571 5570 5570 5570 5569 5568 5566 5565 5564 5562 5560 5558 5556 5553 5551 5548 5545 5542 5539 5535 5532 5528 5524 5521 5517 5513 5509 5506 5504 5501 5499 5497 5495 5494 5493 5493
5553 5557 5560 5560 5561 5561 5561 5562 5562 5562 5561 5561 5560 5559 5558 5557 5556 5554 5552 5550 5548 5546 5543 5540 5538 5535 5532 5528 5525 5521 5518 5514 5511 5507 5504 5501 5498 5496 5493 5491 5489 5488 5487 5487
5542 5546 5549 5549 5550 5551 5551 5552 5552 5552 5552 5552 5551 5550 5550 5549 5547 5546 5544 5542 5540 5538 5536 5533 5530 5527 5524 5521 5517 5514 5511 5507 5504 5501 5498 5495 5492 5489 5487 5485 5483 5482 5481 5480
5531 5535 5537 5539 5540 5541 5541 5542 5542 5542 5542 5542 5541 5541 5540 5539 5538 5537 5535 5534 5532 5530 5528 5525 5522 5519 5516 5512 5509 5506 5503 5500 5497 5494 5491 5489 5486 5483 5480 5478 5476 5475 5474 5473
5522 5525 5526 5529 5530 5531 5531 5532 5533 5533 5533 5532 5532 5531 5531 5530 5529 5528 5526 5525 5523 5521 5519 5516 5514 5511 5507 5504 5500 5498 5495 5492 5489 5486 5483 5481 5478 5476 5473 5471 5470 5468 5467 5466
5511 5513 5515 5517 5519 5520 5521 5522 5523 5523 5523 5523 5522 5522 5521 5520 5519 5518 5517 5515 5514 5512 5510 5507 5504 5501 5498 5495 5491 5488 5486 5483 5480 5477 5475 5472 5470 5468 5467 5465 5463 5462 5460 5459
5500 5502 5504 5507 5509 5510 5510 5511 5512 5512 5513 5513 5513 5512 5511 5511 5510 5509 5507 5506 5504 5502 5500 5497 5495 5492 5488 5485 5481 5479 5476 5473 5471 5468 5466 5464 5462 5460 5458 5457 5456 5455 5454 5453
5490 5492 5494 5496 5497 5499 5500 5501 5502 5502 5502 5502 5502 5502 5501 5501 5500 5499 5497 5495 5494 5492 5489 5487 5484 5481 5478 5474 5471 5469 5466 5464 5461 5459 5457 5455 5453 5451 5450 5449 5448 5448 5447 5446
5478 5480 5483 5485 5487 5488 5489 5490 5491 5492 5492 5492 5492 5492 5491 5490 5489 5488 5487 5485 5483 5481 5479 5476 5473 5470 5467 5464 5461 5459 5456 5454 5451 5449 5448 5446 5444 5442 5441 5440 5439 5439 5439 5438
5467 5470 5472 5475 5477 5478 5479 5480 5481 5481 5481 5481 5481 5481 5480 5479 5478 5477 5476 5474 5472 5470 5467 5464 5462 5459 5456 5454 5451 5449 5446 5444 5442 5440 5438 5436 5434 5433 5432 5431 5430 5430 5429 5429
5457 5460 5462 5464 5466 5468 5469 5470 5471 5471 5471 5471 5470 5470 5470 5469 5468 5466 5464 5462 5460 5458 5455 5452 5450 5448 5445 5443 5441 5438 5436 5434 5432 5430 5428 5427 5425 5424 5423 5422 5421 5421 5420 5420
5447 5450 5452 5454 5456 5457 5458 5459 5460 5460 5460 5460 5460 5459 5458 5457 5456 5454 5452 5451 5448 5446 5444 5441 5439 5437 5435 5432 5430 5428 5426 5425 5423 5421 5420 5418 5417 5415 5414 5414 5413 5412 5412 5413
5438 5440 5442 5444 5446 5447 5448 5448 5449 5449 5449 5449 5448 5448 5447 5445 5444 5442 5440 5439 5437 5434 5433 5430 5428 5426 5424 5422 5420 5418 5417 5415 5414 5413 5411 5410 5409 5408 5407 5406 5405 5405 5405 5406
5429 5431 5433 5434 5436 5437 5437 5438 5438 5438 5438 5438 5437 5436 5435 5434 5433 5431 5429 5428 5426 5423 5422 5420 5418 5416 5414 5412 5411 5409 5408 5406 5405 5404 5403 5402 5401 5400 5399 5398 5398 5398 5398 5399
5420 5422 5423 5424 5425 5426 5427 5427 5427 5427 5427 5426 5426 5425 5424 5423 5421 5420 5418 5417 5415 5413 5412 5410 5408 5406 5404 5403 5401 5400 5399 5398 5396 5395 5394 5394 5393 5392 5392 5392 5392 5392 5392 5393
5411 5412 5414 5415 5416 5416 5416 5417 5417 5416 5416 5415 5415 5414 5413 5412 5410 5409 5408 5406 5405 5403 5402 5400 5398 5397 5395 5394 5393 5391 5390 5389 5388 5387 5386 5386 5385 5385 5385 5385 5385 5386 5386 5387
5402 5403 5405 5405 5406 5406 5407 5407 5407 5406 5406 5405 5404 5403 5403 5402 5400 5399 5397 5396 5394 5393 5392 5391 5389 5388 5386 5385 5384 5383 5382 5381 5379 5379 5378 5378 5378 5378 5379 5379 5380 5380 5380 5381
5394 5395 5395 5396 5397 5397 5397 5397 5397 5397 5396 5395 5395 5394 5393 5391 5390 5389 5387 5386 5385 5383 5382 5381 5380 5379 5378 5377 5376 5374 5373 5372 5371 5371 5371 5371 5372 5372 5373 5374 5374 5375 5375 5376
5386 5386 5387 5387 5387 5388 5388 5388 5388 5387 5386 5386 5385 5384 5383 5381 5380 5379 5378 5376 5375 5374 5373 5372 5371 5370 5369 5368 5367 5366 5365 5365 5364 5364 5364 5365 5366 5366 5367 5368 5369 5370 5371 5371
5377 5378 5378 5378 5379 5379 5379 5379 5378 5378 5377 5376 5376 5374 5373 5372 5371 5370 5368 5367 5366 5365 5364 5363 5362 5361 5361 5360 5359 5359 5358 5358 5357 5357 5358 5359 5360 5361 5362 5363 5364 5365 5366 5367
Wind_Speed
34 34 34 33 32 31 31 31 31 30 29 28 27 27 27 26 26 26 27 28 29 28 28 27 26 27 28 28 29 31 31 32 31 30 29 28 27 26 25 25 26 28 29 31
35 34 34 34 32 32 31 31 31 30 29 27 27 27 27 26 27 27 28 29 29 28 28 27 27 27 28 29 30 31 31 31 30 29 28 27 26 25 25 26 27 28 29 29
36 35 36 35 32 32 32 31 31 30 29 28 28 28 28 28 28 28 29 29 28 28 28 27 28 28 29 30 30 31 31 30 29 28 28 27 26 25 25 26 26 26 27 27
38 37 38 35 33 32 32 31 30 30 29 29 29 29 30 30 29 28 29 29 28 28 27 28 28 28 29 29 30 30 30 29 29 28 27 26 25 25 25 26 26 25 26 26
39 39 38 35 33 33 32 31 30 30 30 30 30 30 30 30 29 29 30 29 28 28 28 28 29 29 30 30 30 31 31 30 30 29 27 24 24 24 25 25 26 26 25 25
39 39 39 35 33 33 33 32 30 30 30 30 30 30 30 30 30 30 30 30 29 29 28 28 28 29 31 31 31 31 31 31 29 28 26 24 24 24 25 25 25 25 25 25
37 38 38 35 34 34 34 32 31 31 30 30 31 30 31 31 30 30 29 29 29 29 28 28 29 31 31 31 31 31 31 30 29 27 26 25 25 25 26 26 25 25 25 25
37 38 36 33 34 34 33 33 32 32 31 31 31 31 31 31 30 30 30 30 29 29 28 29 30 30 31 31 31 31 31 30 29 28 27 26 26 26 26 26 25 24 24 23
38 37 36 35 34 34 33 33 33 32 32 31 31 31 31 31 31 30 30 30 30 30 30 30 31 31 31 32 32 31 30 30 29 28 27 27 27 27 27 26 25 23 23 23
38 37 36 35 35 34 34 33 33 33 33 33 32 32 31 31 31 31 31 31 31 31 31 31 32 32 32 33 32 31 31 30 29 28 27 28 29 28 28 27 25 24 24 23
38 36 37 36 35 34 34 34 34 33 33 33 32 32 32 32 32 32 31 32 32 32 32 33 33 33 33 33 33 32 31 31 30 29 29 29 29 28 27 26 25 24 23 24
37 35 35 34 34 33 33 33 33 33 33 33 33 33 32 33 33 33 33 33 33 33 33 34 34 34 34 34 34 34 33 32 31 30 30 30 29 28 27 26 25 24 23 23
38 36 36 34 33 33 33 33 33 33 33 33 33 33 33 33 34 34 34 34 34 34 35 35 36 36 36 36 35 34 34 33 32 31 30 30 29 28 27 26 25 23 23 22
37 37 36 35 35 34 35 35 34 34 33 33 34 33 34 34 34 34 34 35 35 35 36 37 37 37 37 37 36 35 34 33 32 31 31 30 30 28 27 25 24 24 23 23
37 37 37 36 35 35 35 35 35 34 34 34 34 34 35 35 35 35 35 35 36 37 37 38 38 38 37 36 36 35 34 33 32 32 31 31 30 28 27 26 25 24 24 24
37 37 37 36 35 34 34 34 34 35 35 35 36 36 36 35 36 36 36 37 38 39 39 39 39 38 37 36 35 35 34 33 32 32 31 31 30 29 27 27 26 26 25 25
37 37 36 35 35 34 34 34 34 34 35 35 36 36 36 36 37 37 38 39 40 40 40 39 38 37 36 35 35 34 34 33 32 31 30 30 29 28 28 27 27 27 25 24
36 36 36 36 36 36 35 35 35 35 35 36 36 37 38 38 38 39 39 40 39 39 39 38 37 36 35 34 34 34 32 31 30 29 28 28 27 27 26 26 26 26 24 23
34 35 36 36 37 37 37 37 36 36 36 37 37 38 38 38 39 39 39 38 38 38 37 36 35 34 33 33 33 31 30 29 28 27 27 26 26 26 25 24 24 23 22 21
33 33 34 35 36 36 36 36 36 36 36 37 37 37 37 38 38 38 38 36 36 36 35 34 33 32 32 32 31 30 29 28 27 26 26 25 25 25 24 23 21 20 20 20
33 33 34 34 35 35 35 35 35 36 36 37 37 37 37 37 37 37 36 34 34 34 33 32 32 31 30 30 29 28 27 27 26 25 25 25 24 23 22 21 20 19 19 18
32 32 32 32 33 33 33 34 35 35 36 37 37 37 36 36 36 35 34 33 33 32 31 31 30 29 29 28 28 27 26 26 25 25 25 24 22 21 20 19 18 18 17 17
30 31 31 32 32 33 33 33 34 34 35 35 34 34 34 34 34 33 32 32 32 31 30 30 29 28 27 27 26 26 26 26 25 25 24 23 21 19 18 17 17 16 16 15
30 30 31 32 32 32 32 32 33 33 33 33 32 32 32 32 32 32 32 32 31 30 29 29 28 27 26 26 25 25 25 25 24 23 21 20 19 17 16 16 15 15 15 14
29 29 30 30 30 31 31 31 32 32 32 32 31 31 31 31 31 30 31 31 30 29 28 27 27 26 26 25 25 24 24 23 21 20 20 18 17 16 15 14 14 13 13 14
28 28 29 29 29 30 30 30 31 31 31 31 30 30 30 30 30 29 29 29 29 28 27 27 26 25 25 24 23 22 21 20 19 18 17 17 16 15 14 14 13 12 12 12
27 28 28 28 29 29 29 29 29 29 30 29 29 29 29 29 29 29 28 28 27 26 25 25 24 24 23 22 21 20 19 18 16 15 15 15 15 14 13 13 12 11 11 11
Wind_Direction
263 266 269 272 275 278 281 284 286 290 291 294 295 297 298 299 300 301 303 305 306 307 307 307 308 309 310 309 311 312 311 311 309 307 306 303 298 291 283 279 276 274 272 270
261 264 267 269 272 276 280 283 285 286 289 293 292 292 293 295 298 300 302 303 304 305 306 307 307 308 310 310 311 312 312 312 310 306 306 303 297 291 287 284 281 279 277 275
261 262 265 267 272 276 279 281 283 285 287 288 288 290 292 294 296 299 300 301 301 304 304 305 307 307 308 310 311 312 312 312 309 307 306 302 296 291 290 289 287 284 281 279
261 262 264 268 271 275 278 280 281 283 284 286 287 289 292 294 294 294 298 299 299 301 302 304 306 305 306 309 309 310 310 309 309 308 306 302 297 292 291 291 289 286 283 280
261 264 265 266 271 275 277 278 281 282 284 286 286 287 290 292 293 294 293 296 298 299 300 302 304 305 305 307 308 308 309 309 308 307 307 303 298 294 293 292 290 288 285 283
260 264 265 267 270 274 276 278 280 281 283 285 286 286 287 289 292 294 294 294 296 297 298 300 302 305 305 306 308 308 309 309 308 306 303 301 299 296 294 293 292 288 285 283
260 264 265 268 271 274 276 279 279 280 282 283 284 286 287 288 289 292 292 293 295 297 298 299 301 303 305 306 308 308 308 308 307 304 301 299 298 297 296 295 293 289 285 282
258 261 264 269 271 273 275 276 277 278 280 282 283 284 287 288 288 289 290 291 294 295 296 299 301 303 304 305 307 308 308 307 304 302 300 297 297 297 296 294 292 288 284 281
258 261 264 265 268 271 273 274 275 277 278 280 281 282 284 286 288 289 290 291 293 294 295 298 301 303 303 304 306 307 307 305 303 300 298 296 295 295 296 294 290 287 284 282
257 259 262 264 265 268 271 272 273 275 276 278 279 281 282 284 286 288 289 290 292 293 295 297 299 300 301 302 303 305 304 304 303 299 297 296 296 295 295 292 289 287 285 283
257 259 260 261 263 266 268 271 273 274 276 278 278 280 281 283 285 287 288 290 291 293 295 296 297 298 299 301 301 301 301 301 300 298 296 296 296 295 294 290 288 286 283 282
255 257 259 260 261 263 266 270 273 274 275 276 278 279 280 282 284 285 288 289 291 293 294 295 296 297 298 299 299 298 298 298 296 295 294 294 293 293 293 290 287 285 283 280
253 255 257 259 260 260 263 267 270 272 274 275 276 278 280 281 282 284 287 288 289 291 293 294 295 296 297 297 297 296 295 295 294 292 292 293 292 290 289 287 284 283 282 279
252 254 256 258 260 260 262 265 268 270 272 274 276 277 279 281 282 285 287 287 288 290 292 293 294 295 295 295 295 294 294 293 292 291 290 291 290 288 287 285 283 282 281 278
251 253 254 256 259 261 263 267 269 271 272 274 276 277 279 281 283 285 287 288 288 291 292 293 294 293 293 293 294 294 292 291 290 289 289 289 288 286 285 283 281 280 279 277
250 252 254 256 259 261 264 267 271 273 273 275 276 277 278 280 282 285 287 288 289 291 291 292 292 292 291 292 292 292 291 290 289 289 288 288 286 284 283 281 279 279 277 276
249 251 253 255 257 260 263 267 270 272 273 274 275 276 279 281 283 286 287 288 289 290 290 290 290 290 290 291 291 290 290 288 287 288 287 286 284 283 283 281 280 279 277 273
248 251 253 256 259 261 265 268 270 273 274 275 276 278 280 282 284 286 287 287 288 289 290 289 289 289 289 290 290 290 289 287 287 287 286 285 284 283 283 282 282 280 277 272
249 251 254 257 261 264 266 269 272 274 276 276 277 279 281 283 284 286 286 286 287 288 288 288 289 289 289 290 290 289 288 286 286 286 286 285 283 283 284 284 282 279 276 272
251 254 256 259 261 264 267 270 271 273 275 277 278 280 281 283 284 286 286 285 286 286 287 287 287 287 288 288 288 288 287 285 284 284 285 285 283 283 282 281 281 277 274 272
252 256 259 261 263 265 267 270 271 273 275 278 279 280 282 283 285 286 285 284 284 285 286 287 287 286 286 287 287 286 286 284 284 283 284 285 283 281 279 278 275 274 273 270
254 258 260 263 265 267 269 270 272 274 276 278 279 281 282 283 284 284 284 283 283 284 285 286 285 285 285 286 285 284 284 284 284 283 284 284 282 280 278 274 272 271 270 267
256 258 261 264 265 268 269 271 273 275 277 279 280 281 282 282 282 282 282 282 282 283 284 283 282 283 283 284 284 284 283 283 283 283 283 282 280 277 274 272 272 271 266 262
259 261 263 266 267 269 270 272 274 276 278 279 280 281 282 283 282 281 281 281 281 282 282 281 280 281 282 284 285 284 283 283 281 279 279 278 275 273 270 270 270 268 263 259
261 263 265 268 270 271 272 273 274 276 277 278 279 280 281 282 281 280 280 280 281 280 279 279 279 281 282 284 284 284 284 282 280 276 275 273 270 267 265 266 265 263 261 256
262 263 265 267 269 270 271 272 274 275 276 276 277 280 281 282 282 281 281 280 279 278 277 278 279 281 282 282 282 282 281 280 278 274 271 268 263 261 260 260 257 256 256 253
265 265 267 267 269 270 271 273 274 275 276 276 278 280 281 281 281 281 281 280 278 277 278 279 279 280 280 279 277 278 278 277 275 269 267 263 258 255 253 253 251 249 249 246